Location: Jaite
(41.2884°N, 81.5737°W)
Time: 00:17:34
(UTC+00:00)

CSL-04 Rocket - Pass Details

Date: 18 January 2020
Orbit: 806 x 860 km, 99.0° (Epoch: 23 February)

Event Time Altitude Azimuth Distance (km) Brightness Sun altitude
Rises 00:06:15 0° 166° (SSE) 3,367 6.8 -18.9°
Reaches altitude 10° 00:08:35 10° 167° (SSE) 2,445 6.1 -19.4°
Maximum altitude 00:14:01 83° 255° (WSW) 859 3.7 -20.4°
Drops below altitude 10° 00:19:35 10° 345° (NNW) 2,493 6.2 -21.4°
Sets 00:21:59 0° 346° (NNW) 3,438 6.9 -21.8°
